Regional Weather Roundup
Issued by NWS Newport/Morehead, NC

Home | Current Version | Previous Version | Text Only | Print | Product List | Glossary On
Versions: 1 2 3 4 5 6 7 8 9 10 11 12 13 14 15 16 17 18 19 20 21 22 23 24 25 26 27 28 29 30 31 32 33 34 35 36 37 38 39 40 41 42 43 44 45 46 47 48 49 50
000
ASUS42 KMHX 260422
RWRMHX
WEATHER ROUNDUP FOR EASTERN NORTH CAROLINA
NATIONAL WEATHER SERVICE NEWPORT/MOREHEAD CITY NC
1100 PM EST SUN JAN 25 2015

NOTE: "FAIR" INDICATES FEW OR NO CLOUDS BELOW 12,000 FEET
WITH NO SIGNIFICANT WEATHER AND/OR OBSTRUCTIONS TO VISIBILITY

NCZ015>017-031-032-045>047-102-103-260500-
NORTH COAST

CITY           SKY/WX    TMP DP  RH WIND       PRES   REMARKS
EDENTON        PTCLDY    37  34  88 CALM      29.89R
ELIZABETH CITY CLEAR     39  35  86 SE5       29.88F
KITTY HAWK     CLEAR     40  36  83 SE3       29.88F
MANTEO         CLEAR     36  34  93 CALM      29.90S

$$

NCZ045>047-081-094-103-104-260500-
CENTRAL COAST

CITY           SKY/WX    TMP DP  RH WIND       PRES   REMARKS
FRISCO         PTCLDY    47  42  83 NE6       29.88F
SWANQUARTER    NOT AVBL

$$

NCZ095-097-098-100-101-260500-
SOUTHERN COAST

CITY           SKY/WX    TMP DP  RH WIND       PRES   REMARKS
BEAUFORT       CLEAR     40  38  93 E3        29.87F
CEDAR ISLAND   NOT AVBL
JACKSONVILLE   CLEAR     37  35  92 CALM      29.86S
PINEY ISLAND     N/A    N/A N/A N/A MISG      29.88R
WILMINGTON     CLEAR     39  36  89 CALM      29.86R


$$

NCZ011>013-027>030-043-044-078>080-089-090>093-098-260500-
COASTAL PLAIN

CITY           SKY/WX    TMP DP  RH WIND       PRES   REMARKS
AHOSKIE        MOCLDY    35  32  91 CALM      29.88S
CLINTON        MOCLDY    40  37  89 CALM      29.85F
ELIZABETHTOWN  CLOUDY    40  36  84 SE3       29.84F
GOLDSBORO      CLEAR     36  35  99 SE2       29.84S
GREENVILLE     CLEAR     36  34  93 CALM      29.90R
HAVELOCK       CLEAR     37  34  89 CALM      29.88S
KENANSVILLE    CLOUDY    34  34  99 CALM      29.86F
KINSTON        CLEAR     35  34  96 CALM      29.88R
NEW BERN       CLEAR     36  31  82 CALM      29.88F
RICHLANDS      MOCLDY    34  30  86 CALM      29.86F
ROCKY MOUNT    PTCLDY    37  33  85 CALM      29.86S
WASHINGTON     CLEAR     37  34  89 CALM      29.88S
WHITEVILLE     CLOUDY    38  36  92 CALM      29.85F

$$

AMZ130-135-150-152-154-156-158-170-250-252-270-ANZ085-086-088-633-658-670-260500-
MARINE OBSERVATIONS

STATION/POSITION TIME  TEMP    WIND        PRES    WAVE   SWELL
                       AIR SEA DIR/SP/G            HT/PER HT/PER
                 (UTC) (F)     (DEG/KT/KT) (MB)    (FT/S) (FT/S)
CHESAPEAKE LIGHT 0400   45     170/ 13/ 14 1012.6
64 E VA BEACH    0400   49 53  210/  8/ 12 1012.6    3/10   3/10
DUCK             0400   43 44  130/  6/  8 1011.3
2 E DUCK         0400      43                N/A     2/ 8   2/11
10 NE DUCK       0400      45                N/A     2/11   2/11
OREGON INLET     0400   43 47   70/  3/  3 1012.4
13E OREGON INLT  0400      45                N/A     3/ 8   2/11
HATTERAS CG      0400   49 53   30/  2/  3 1012.2
DIAMOND BUOY     0400   59 69  210/ 12/ 17 1011.4    3/ 8   3/ 8
17 S OCRACOKE    NOT AVBL
CAPE LOOKOUT     0400   53     260/  4/  4 1011.5
BEAUFORT LAB     0400   46 51   CALM  /  2 1010.3
27 SE WRIGHTSVLE NOT AVBL
5 SE WRIGHTSVLE  0400   54 51  220/  6/  8 1010.7
225 S CAPE HAT   0305   67 72  250/ 14/ 17 1014.0    5/ 8   3/ 8
41 SE CHARLESTON 0400   62 69  230/ 23/ 27 1010.6    5/ 5   2/ 8

$$



USA.gov is the U.S. government's official web portal to all federal, state and local government web resources and services.